一网星座-0227星 (ONEWEB-0227 )

导读

ONEWEB-0227是英国OneWeb星座的低轨宽带通信卫星,于2021年5月28日发射入轨。它属于OneWeb第七批发射组网卫星,运行在约1200公里高度低极地轨道,配备Ku/Ka波段天线,可提供高速宽带接入服务,设计寿命达7年以上,为全球航空、海事和偏远地区提供互联网连接,助力OneWeb构建全球覆盖的低轨卫星互联网星座,填补地面网络覆盖盲区。

基本信息
目录编号:
48792
目录名称:
ONEWEB-0227
国际标识:
2021-045AB
轨道中心:
EARTH
卫星名称:
一网星座-0227星
卫星全名:
一网星座-0227星 (ONEWEB-0227 )
卫星状态:
在轨 (已飞行1841 天)
发射日期:
2021-05-28 UTC
国别 :
英国 (GB)
星等 :
--
轨道信息
数据来源 国际轨道数据 AOE轨道数据
星历时间 2026-06-12T14:22:10+0800
14小时前
查看轨道信息
2026-06-08T05:00:00+0800
5天前
查看轨道信息
半长轴 7579.907km 7579.895km
偏心率 0.0001886 0.0001796
轨道倾角 87.901° 87.900°
近地点辐角 102.804° 100.870°
升交点赤经 260.169° 261.043°
平近点角 257.330° 358.370°
近地点 1200.34km 1200.396km
远地点 1203.2km 1203.12km
周期 109.460分钟 109.460分钟
每日圈数 13.155488 13.155519
详细信息
平衡模式:
三轴稳定
覆盖范围:
全球
运营商:
一网卫星公司
运营商所在国:
英国
制造商(研发单位):
一网卫星公司
制造商所在国:
英国
使用方式:
暂无
卫星简介
OneWeb卫星网络由648颗重约125公斤的微型卫星组成,运行在1200公里的轨道上。 每颗卫星都能够提供至少每秒8千兆位的吞吐量,以使用其高吞吐量的Ku频段有效载荷为家庭和移动平台提供互联网接入。该卫星仍在工作。
2D轨道图
3D轨道图
轨道高度分析图
轨道倾角分析图
轨道综合分析图
查看轨道综合分析图